Temp
14 14 14 14 14 14 14 13 13 13 13 13 13 13 12 12 12 12 12 11 11 11 11 11 11 11 11 11 10 10 7 7 8 9 9 12 10 12 12 12 13 14 14 14 14
14 14 14 14 14 14 14 14 14 13 13 13 13 13 13 13 13 12 12 12 12 11 11 11 11 11 11 11 10 9 6 8 9 9 9 10 10 11 11 12 12 12 13 15 14
14 14 14 14 14 15 14 14 14 14 14 14 14 14 14 13 13 13 13 12 12 12 11 11 11 10 10 10 10 9 7 9 10 11 11 10 10 11 11 10 13 14 14 12 13
14 14 15 14 15 15 15 15 15 15 14 14 14 14 14 14 12 13 13 12 12 12 12 12 11 10 8 8 10 8 9 10 10 11 10 9 11 11 11 12 14 13 14 13 12
15 15 15 15 15 15 15 15 15 15 15 15 14 14 14 14 14 13 13 13 13 13 12 12 11 10 8 8 8 6 8 10 11 11 11 11 10 10 11 14 13 13 13 12 12
15 14 14 15 15 15 15 16 16 15 15 15 15 14 14 13 14 14 13 13 13 13 13 12 11 10 9 8 8 9 8 8 10 10 9 9 10 11 14 14 14 13 12 12 12
14 14 15 15 15 15 16 16 16 16 16 16 15 15 14 15 14 14 13 13 13 13 13 12 11 11 10 8 9 8 7 8 10 10 9 10 10 9 13 13 12 13 10 11 11
15 15 16 16 16 16 16 16 16 16 16 16 15 15 15 15 15 14 14 14 14 14 13 12 11 10 9 10 9 8 8 7 10 9 11 11 9 12 13 12 12 13 10 10 9
15 15 15 16 16 16 16 17 17 16 15 15 15 14 15 15 15 15 14 14 14 13 13 12 11 10 10 6 6 6 6 7 8 10 10 11 10 11 12 12 12 9 10 10 10
15 15 15 15 16 16 16 17 17 16 15 15 14 14 15 15 15 15 14 14 14 13 12 12 11 7 5 5 6 6 6 7 7 9 9 9 9 9 11 9 8 9 9 9 10
14 15 15 15 15 15 16 17 16 15 15 15 14 14 15 15 15 15 14 13 13 13 9 9 7 7 7 6 6 6 5 6 7 9 8 8 8 8 10 10 8 8 8 9 9
14 14 14 15 15 15 15 15 12 11 10 13 13 14 14 14 13 14 14 13 12 9 8 7 9 9 7 8 8 7 8 7 7 9 8 8 9 8 8 9 9 10 9 9 9
13 14 14 14 15 15 14 12 11 10 8 12 13 14 14 13 13 14 13 12 10 9 8 9 10 8 9 8 7 7 8 7 7 7 9 7 9 7 8 9 10 11 12 10 9
13 13 14 14 14 14 13 12 11 10 7 13 13 14 14 13 13 13 13 12 11 10 8 8 9 8 8 9 7 6 8 7 7 7 8 6 7 8 7 8 8 9 10 10 10
13 13 13 13 13 13 12 12 11 10 8 13 13 13 14 13 12 13 13 12 11 10 9 11 8 8 9 9 7 8 6 7 8 8 8 6 6 8 7 8 7 8 9 10 9
13 13 13 13 13 12 12 12 11 7 8 12 13 11 12 12 12 13 13 12 11 10 9 8 9 8 9 8 8 7 7 7 5 6 6 6 6 8 7 7 7 8 9 9 10
12 12 12 12 12 12 12 12 6 7 11 12 11 11 10 11 11 10 10 8 8 8 7 7 9 8 8 8 8 6 5 5 6 5 7 6 6 9 8 7 7 7 9 11 11
12 12 12 12 11 11 11 8 11 12 12 10 11 10 11 10 11 9 10 9 8 8 6 6 7 8 8 9 8 7 6 4 7 6 5 5 8 8 8 8 9 10 10 11 11
12 12 12 11 11 11 11 5 8 10 10 9 10 11 11 11 11 10 10 9 9 8 9 7 8 8 9 8 8 8 6 6 5 5 5 5 7 9 7 6 8 9 10 10 10
11 11 11 10 11 11 7 8 9 9 10 10 11 11 11 9 10 9 10 10 10 9 8 8 7 8 7 8 8 8 7 6 4 6 6 5 5 5 5 5 6 6 7 9 10
10 11 10 10 10 10 6 6 8 10 10 10 10 10 10 9 9 9 10 11 10 9 9 8 7 8 7 8 8 6 7 5 4 4 5 4 6 6 5 4 4 4 5 6 7
10 8 10 10 9 4 6 7 9 10 10 9 9 9 9 9 9 10 10 10 10 9 9 7 5 6 8 7 6 7 8 5 5 6 3 4 4 4 3 3 3 2 3 5 6
10 10 9 9 7 5 6 7 9 9 9 9 9 9 9 9 9 9 9 9 10 9 9 8 6 5 7 8 7 8 8 5 4 3 4 4 5 3 3 2 2 1 2 3 4
9 6 9 8 7 6 7 8 8 9 9 9 9 9 9 8 8 8 9 9 9 9 9 8 5 6 5 7 7 6 6 6 6 2 4 3 5 1 0 0 1 1 1 1 1
9 8 7 6 6 6 6 7 8 9 8 8 8 8 8 8 8 7 8 7 8 8 7 5 5 3 4 4 5 5 5 4 2 4 4 5 4 0 -1 -1 1 0 -1 -1 1
9 8 6 6 6 5 6 7 7 8 8 8 8 7 7 7 7 7 7 6 5 6 6 3 5 4 3 4 4 4 4 3 3 4 3 3 2 -1 -1 -1 -1 -1 -2 -3 -3
8 8 8 6 4 4 5 6 7 8 8 8 7 6 6 6 7 7 7 7 7 6 4 4 3 4 4 4 4 4 5 4 0 1 1 2 0 -2 -2 -2 -2 -3 -4 -4 -4
Height
1550 1549 1548 1546 1545 1544 1542 1541 1539 1537 1535 1532 1530 1528 1526 1524 1523 1520 1519 1519 1516 1513 1511 1510 1508 1505 1504 1504 1505 1506 1511 1512 1506 1503 1499 1494 1494 1491 1489 1486 1483 1480 1476 1473 1472
1551 1549 1547 1547 1546 1544 1543 1541 1539 1537 1534 1532 1530 1528 1526 1523 1522 1520 1520 1517 1516 1514 1512 1509 1507 1505 1504 1504 1504 1506 1512 1505 1498 1496 1494 1491 1491 1488 1488 1481 1478 1475 1473 1472 1471
1551 1550 1549 1547 1545 1544 1543 1542 1540 1537 1535 1532 1530 1528 1525 1523 1523 1521 1519 1518 1516 1514 1512 1510 1508 1506 1504 1504 1504 1503 1505 1496 1493 1491 1490 1489 1487 1485 1483 1478 1474 1472 1471 1470 1470
1552 1551 1549 1547 1546 1544 1542 1541 1539 1537 1535 1533 1530 1528 1526 1525 1528 1521 1519 1517 1515 1513 1512 1511 1509 1507 1506 1506 1503 1504 1495 1493 1487 1486 1486 1485 1483 1481 1478 1473 1471 1470 1468 1468 1468
1553 1551 1550 1548 1546 1544 1542 1539 1538 1536 1534 1532 1531 1528 1527 1526 1524 1521 1519 1516 1515 1513 1512 1510 1509 1508 1508 1506 1504 1501 1492 1487 1484 1482 1480 1480 1479 1478 1473 1468 1469 1467 1465 1464 1467
1555 1553 1550 1548 1546 1544 1541 1538 1536 1534 1532 1531 1530 1528 1527 1526 1523 1520 1518 1516 1514 1512 1511 1510 1509 1508 1506 1504 1504 1495 1492 1485 1478 1474 1474 1475 1474 1475 1467 1465 1464 1465 1465 1466 1468
1555 1553 1551 1547 1544 1541 1539 1536 1534 1531 1529 1529 1528 1527 1526 1526 1522 1519 1516 1514 1513 1511 1510 1509 1508 1508 1505 1502 1499 1495 1493 1482 1476 1473 1471 1472 1475 1472 1465 1463 1463 1465 1466 1466 1467
1556 1554 1551 1548 1545 1542 1538 1535 1531 1528 1527 1526 1526 1526 1523 1522 1520 1519 1516 1513 1512 1510 1508 1507 1507 1506 1505 1502 1496 1496 1495 1495 1478 1475 1471 1472 1476 1465 1463 1461 1461 1463 1465 1469 1469
1556 1553 1550 1548 1544 1541 1537 1533 1529 1527 1526 1525 1524 1524 1523 1521 1520 1517 1514 1512 1511 1510 1508 1507 1507 1506 1504 1507 1506 1504 1506 1497 1485 1476 1474 1472 1471 1463 1462 1461 1462 1463 1463 1469 1471
1555 1553 1550 1546 1543 1539 1535 1531 1527 1525 1525 1524 1523 1525 1523 1521 1518 1517 1514 1511 1510 1509 1508 1507 1506 1508 1509 1511 1516 1509 1507 1497 1493 1479 1474 1472 1470 1465 1463 1462 1462 1464 1466 1469 1471
1554 1552 1549 1545 1542 1539 1535 1530 1530 1527 1524 1523 1522 1520 1520 1520 1516 1516 1513 1511 1510 1509 1512 1509 1514 1515 1509 1508 1506 1505 1506 1501 1486 1478 1479 1475 1472 1469 1465 1463 1464 1465 1469 1471 1473
1553 1551 1548 1545 1542 1539 1537 1533 1535 1536 1525 1521 1519 1520 1520 1519 1518 1516 1514 1512 1511 1515 1512 1514 1513 1508 1506 1503 1502 1500 1497 1495 1483 1478 1478 1476 1473 1471 1468 1468 1465 1466 1470 1470 1473
1553 1551 1548 1544 1541 1539 1536 1536 1534 1532 1528 1520 1518 1519 1521 1520 1519 1517 1516 1513 1512 1514 1516 1516 1510 1507 1505 1503 1502 1498 1497 1497 1496 1484 1479 1478 1478 1479 1474 1471 1469 1468 1467 1469 1473
1553 1550 1547 1545 1543 1539 1537 1536 1534 1532 1535 1522 1519 1517 1518 1517 1518 1516 1515 1516 1513 1515 1515 1515 1510 1509 1506 1502 1504 1504 1496 1495 1491 1489 1493 1489 1499 1484 1483 1478 1474 1472 1472 1472 1472
1553 1550 1546 1544 1543 1540 1539 1535 1534 1534 1564 1525 1521 1520 1518 1519 1518 1516 1515 1513 1515 1516 1518 1514 1511 1511 1507 1503 1502 1500 1495 1493 1490 1492 1494 1496 1503 1495 1487 1485 1484 1479 1474 1471 1474
1552 1550 1547 1544 1542 1541 1538 1535 1534 1548 1561 1527 1521 1521 1520 1517 1518 1516 1516 1515 1515 1515 1516 1515 1511 1510 1508 1502 1499 1496 1494 1495 1498 1501 1513 1510 1511 1503 1500 1499 1493 1484 1477 1473 1475
1551 1548 1545 1544 1542 1539 1537 1536 1550 1560 1531 1531 1529 1524 1525 1522 1519 1519 1520 1522 1525 1527 1528 1519 1512 1509 1508 1506 1500 1500 1503 1519 1518 1523 1518 1511 1511 1504 1500 1498 1496 1491 1487 1483 1482
1549 1548 1545 1542 1541 1539 1537 1538 1547 1534 1533 1532 1529 1527 1526 1524 1521 1522 1522 1527 1526 1528 1536 1535 1532 1515 1512 1514 1515 1514 1516 1531 1519 1531 1529 1514 1511 1508 1502 1499 1498 1494 1491 1488 1484
1547 1546 1543 1541 1540 1539 1540 1556 1544 1538 1535 1533 1528 1529 1529 1525 1526 1524 1526 1527 1525 1525 1530 1533 1526 1515 1514 1513 1515 1514 1523 1520 1526 1528 1533 1526 1512 1502 1504 1503 1499 1496 1493 1489 1487
1545 1543 1541 1540 1539 1539 1542 1544 1537 1534 1533 1533 1533 1532 1533 1533 1531 1531 1527 1526 1525 1524 1526 1529 1533 1518 1515 1515 1515 1515 1518 1524 1531 1530 1528 1528 1524 1523 1515 1512 1506 1501 1496 1492 1489
1543 1541 1541 1539 1539 1539 1546 1544 1536 1533 1532 1534 1534 1534 1534 1536 1534 1532 1529 1526 1526 1526 1524 1529 1534 1523 1518 1520 1521 1523 1523 1528 1534 1537 1537 1543 1525 1521 1522 1519 1515 1509 1504 1498 1494
1542 1540 1539 1539 1542 1541 1542 1537 1535 1533 1532 1531 1533 1534 1533 1533 1534 1532 1531 1528 1526 1526 1527 1529 1535 1535 1523 1521 1521 1520 1522 1528 1536 1536 1542 1543 1536 1523 1522 1520 1514 1511 1505 1501 1498
1541 1538 1537 1538 1543 1542 1540 1536 1534 1533 1532 1533 1532 1532 1533 1533 1535 1532 1529 1528 1527 1527 1527 1528 1535 1541 1526 1524 1522 1520 1521 1524 1530 1534 1536 1540 1527 1522 1517 1515 1517 1516 1512 1507 1503
1542 1538 1536 1536 1537 1537 1537 1535 1534 1533 1534 1532 1533 1531 1532 1532 1532 1532 1530 1528 1527 1526 1525 1526 1534 1534 1543 1525 1526 1526 1524 1523 1527 1542 1530 1528 1516 1523 1521 1518 1517 1517 1515 1512 1508
1538 1536 1534 1537 1535 1536 1538 1536 1532 1532 1532 1532 1533 1534 1533 1534 1533 1532 1530 1529 1526 1523 1522 1524 1530 1534 1527 1524 1524 1520 1516 1519 1524 1518 1522 1517 1520 1530 1529 1526 1523 1520 1515 1509 1504
1535 1533 1534 1535 1534 1535 1537 1534 1532 1530 1531 1531 1531 1533 1533 1534 1533 1533 1533 1533 1532 1527 1526 1528 1529 1529 1530 1520 1521 1519 1514 1516 1518 1519 1519 1514 1520 1529 1527 1525 1522 1520 1516 1512 1509
1529 1528 1531 1533 1533 1533 1532 1529 1527 1528 1530 1529 1530 1532 1534 1532 1530 1529 1528 1527 1527 1529 1530 1531 1531 1529 1525 1519 1519 1513 1509 1511 1522 1525 1525 1520 1530 1531 1527 1523 1521 1520 1518 1516 1511
Wind_Speed
7 7 7 6 7 9 11 12 12 13 13 13 13 12 11 6 6 12 11 12 13 15 14 12 8 10 5 2 1 2 1 3 4 2 5 9 6 17 19 20 9 15 15 10 18
7 7 7 7 8 9 9 11 12 12 13 13 13 13 13 9 3 11 11 12 13 14 15 16 15 13 4 2 1 3 2 5 6 5 6 16 12 21 10 22 17 12 18 14 22
9 9 9 9 9 9 10 11 12 13 13 13 13 13 14 11 2 11 12 12 12 12 12 14 11 9 4 4 1 2 5 5 13 22 23 16 16 22 7 11 18 8 14 22 30
11 11 10 10 10 11 11 11 11 12 13 14 13 12 11 9 2 11 12 11 10 9 10 12 10 7 4 4 3 4 13 17 19 23 12 5 9 8 14 21 28 22 17 23 35
11 11 11 12 12 13 13 13 13 13 12 13 14 13 8 5 5 10 11 10 8 9 10 11 7 6 3 5 7 5 6 12 21 23 24 20 16 13 13 24 24 17 15 25 30
11 12 13 14 15 15 15 15 14 14 13 13 13 13 8 4 10 11 12 9 8 10 12 10 6 8 6 5 2 5 12 25 19 18 11 8 8 7 16 16 15 7 18 19 28
13 14 15 15 15 14 15 17 16 15 13 11 11 13 8 4 10 13 13 10 7 11 13 9 7 5 5 5 6 11 7 9 3 7 3 10 5 8 11 13 13 10 11 9 15
15 15 16 17 18 18 18 20 21 13 11 9 9 11 4 7 9 10 12 5 7 7 9 5 5 7 3 11 9 5 1 5 7 9 5 5 7 4 8 9 16 12 16 13 18
14 15 17 18 18 18 18 19 19 13 9 8 9 7 3 7 13 10 14 8 6 7 6 4 5 3 5 4 5 5 5 5 9 3 4 2 6 5 8 8 9 11 18 15 10
14 16 17 18 19 18 18 19 14 13 6 8 6 4 3 10 15 7 14 10 6 7 2 4 3 3 3 5 4 7 5 5 6 7 5 5 8 7 7 3 7 12 12 11 7
14 15 17 18 19 17 20 15 9 4 11 7 6 5 8 15 8 7 16 9 6 3 4 5 6 4 8 4 6 7 4 6 6 4 6 4 5 8 8 4 2 6 7 8 8
14 15 17 19 20 16 18 10 9 8 11 9 6 8 8 11 6 7 15 6 5 3 7 5 2 5 7 5 5 5 4 7 9 2 1 6 5 6 4 3 5 4 4 9 10
16 17 17 18 18 17 16 16 14 12 3 4 0 3 4 9 6 8 14 6 4 5 4 2 4 8 5 4 8 4 3 6 5 8 0 4 7 8 5 6 5 9 10 5 11
16 16 18 18 9 17 12 16 15 13 5 3 1 1 2 7 2 7 8 5 4 4 5 4 4 6 7 3 3 5 2 5 5 5 3 7 3 7 8 9 9 15 13 6 12
17 17 18 16 14 13 13 14 12 6 4 3 2 3 6 2 6 3 8 3 1 3 4 4 6 6 5 7 1 8 5 3 2 3 3 11 5 7 5 9 9 15 23 10 8
17 19 18 17 16 13 13 13 6 6 5 5 2 4 5 4 3 6 5 5 2 1 1 5 5 1 3 7 2 11 3 4 4 3 5 5 3 6 5 5 7 15 28 19 2
18 19 18 17 14 13 12 7 5 4 4 7 4 5 2 4 5 5 4 6 4 6 7 7 3 5 3 7 7 11 7 4 6 5 2 5 4 3 5 3 3 9 23 23 15
17 18 17 17 14 12 6 5 2 2 1 3 4 4 3 4 2 6 3 4 4 4 2 3 9 7 6 2 3 4 3 3 1 2 5 7 4 2 4 6 13 28 32 25 24
17 17 17 14 9 6 3 3 6 4 2 5 5 4 4 3 3 6 2 1 1 1 2 4 5 4 2 2 2 6 5 1 3 1 1 4 5 3 8 11 22 28 34 31 27
15 16 12 6 6 3 3 5 3 2 2 1 1 2 3 5 6 6 3 1 1 1 1 0 4 1 5 2 3 4 1 4 4 4 4 4 4 3 9 16 15 20 28 29 26
12 8 4 5 5 1 2 5 4 3 1 1 1 3 1 3 3 4 3 2 2 1 4 2 2 6 3 4 1 5 3 5 4 2 2 3 4 2 7 7 13 20 27 30 30
5 1 4 4 3 2 2 4 2 3 1 1 2 2 2 1 3 2 2 1 4 1 3 1 3 4 5 3 2 2 2 4 4 4 1 2 4 5 5 14 24 26 28 30 30
4 4 4 3 2 1 5 4 3 2 1 1 2 2 0 1 2 2 2 1 4 3 1 2 2 5 7 3 1 2 1 3 4 3 4 4 4 6 18 24 27 28 33 34 34
4 2 1 2 2 4 2 3 3 1 2 1 1 1 1 1 1 3 2 2 8 4 2 3 2 6 6 7 1 4 2 4 4 2 4 6 7 11 13 13 20 26 28 30 34
5 4 3 2 2 3 1 2 1 1 2 1 1 1 1 1 3 4 1 5 5 3 3 4 5 5 6 9 4 7 10 7 9 7 7 3 2 5 6 9 18 18 24 33 41
5 4 3 3 2 4 2 4 5 2 2 2 3 2 2 4 6 4 1 2 6 3 2 3 3 1 5 9 4 7 9 8 4 1 8 4 4 4 12 15 18 17 26 30 35
14 9 4 3 3 4 4 5 5 4 1 1 5 3 2 6 6 10 16 18 14 3 2 1 2 1 5 3 7 6 2 2 5 6 3 2 4 12 9 18 23 15 20 25 31
Wind_Direction
34 23 12 7 5 7 8 6 3 4 4 7 8 2 356 336 15 22 19 18 16 17 7 358 359 347 3 62 219 198 67 249 249 237 248 283 290 292 302 286 272 277 266 268 191
23 17 14 2 354 352 355 358 356 353 357 360 2 358 357 348 18 19 9 10 7 5 2 360 358 358 4 23 307 138 180 237 216 233 255 272 273 286 301 295 295 261 247 231 199
24 18 9 3 358 348 344 343 349 354 352 353 356 355 356 359 316 5 6 4 0 356 356 354 353 351 342 326 267 217 227 228 264 263 268 269 280 281 260 284 265 275 268 200 191
26 19 14 7 359 350 342 335 334 337 348 352 352 350 351 357 2 1 2 356 357 352 352 353 349 355 347 329 284 292 247 253 271 270 267 230 267 277 253 265 276 282 270 206 188
21 14 9 3 356 349 342 335 327 323 326 333 344 345 348 338 332 352 359 349 345 347 345 341 344 344 331 302 298 212 270 278 281 274 252 264 264 251 274 283 283 282 228 213 194
14 9 7 2 353 347 343 336 327 316 313 317 328 333 332 328 352 351 353 344 332 335 329 328 319 321 286 262 207 266 285 288 297 293 250 213 244 195 263 285 298 245 213 215 198
8 3 359 355 349 341 339 334 329 314 303 308 314 323 308 316 356 351 348 338 330 322 317 318 307 308 312 287 289 284 307 323 296 324 278 215 297 235 277 301 272 211 112 143 179
358 356 352 347 345 343 337 334 328 319 306 292 312 316 280 319 349 350 352 341 326 327 325 318 309 301 274 303 321 332 49 352 301 348 359 142 267 271 332 302 253 192 129 142 92
356 352 351 347 344 341 335 333 328 319 312 293 305 315 292 329 336 344 350 342 332 335 352 353 322 324 334 5 350 9 293 300 316 8 344 201 280 265 330 302 223 153 163 155 138
347 346 345 344 342 341 341 337 326 317 310 302 292 318 297 327 331 352 348 342 350 337 313 354 358 30 27 42 312 295 311 295 283 306 342 289 272 290 315 311 227 143 143 151 193
339 339 337 338 341 344 350 352 349 327 317 265 272 273 311 330 329 344 353 345 344 37 15 357 44 324 297 243 239 268 252 274 275 269 344 347 293 303 336 0 177 167 134 166 172
336 337 336 337 339 347 354 29 16 313 309 295 265 273 314 332 318 353 353 9 26 4 339 11 319 298 289 287 274 299 292 319 295 279 333 344 358 342 30 19 328 335 146 199 178
336 338 337 339 338 346 358 9 355 339 285 309 306 319 335 338 325 331 354 353 65 11 15 182 273 325 337 323 347 338 312 313 266 319 141 341 21 3 337 346 27 17 16 154 181
334 339 337 341 341 343 349 349 346 343 36 287 238 153 321 323 280 331 354 2 13 346 334 242 311 337 312 338 32 317 85 295 310 24 16 16 23 6 346 22 25 9 353 341 168
332 337 336 343 333 336 336 340 343 353 7 313 329 337 325 358 323 2 359 18 343 316 51 280 346 348 339 305 359 257 346 293 354 36 20 357 69 302 356 9 358 351 5 331 191
332 331 333 334 330 329 332 335 342 44 265 353 326 352 7 3 358 321 359 360 350 50 333 261 298 285 272 310 274 296 31 36 47 47 39 323 56 342 3 337 331 346 24 30 323
325 326 327 325 322 323 327 334 32 121 330 326 336 10 327 326 344 40 21 14 35 23 3 327 338 323 352 350 355 12 30 3 19 15 249 337 43 243 329 357 328 349 21 33 29
320 322 322 320 321 323 333 48 158 244 302 332 333 326 356 5 353 342 40 30 32 65 45 41 333 9 350 63 293 349 46 106 30 1 292 337 21 330 342 39 51 33 17 14 14
314 318 315 316 326 340 335 58 216 196 256 341 331 26 328 14 344 13 58 124 198 77 56 358 288 319 39 334 70 322 40 259 103 178 54 308 318 15 30 19 6 6 2 4 2
315 318 302 317 328 344 74 239 242 226 289 41 295 45 326 323 357 13 0 288 159 121 100 8 301 317 293 37 35 79 229 26 11 23 356 324 300 251 14 2 354 354 348 358 6
316 318 291 316 321 310 180 230 280 259 207 117 273 305 8 314 335 308 323 334 348 65 81 109 122 291 355 34 289 357 22 49 111 95 111 320 287 3 22 342 349 347 343 2 12
295 317 282 303 310 49 231 202 290 277 269 131 133 196 158 318 300 302 304 293 14 21 31 28 152 292 272 295 294 172 127 113 107 294 101 174 275 100 25 29 15 3 5 39 41
269 269 284 263 229 277 294 288 250 273 250 162 162 192 175 222 316 227 301 9 42 33 76 158 331 327 349 359 5 58 106 124 109 98 207 158 254 15 25 27 19 13 16 27 35
272 335 248 203 190 154 240 260 288 323 287 223 205 135 130 265 203 287 295 304 328 273 252 154 177 182 215 240 130 298 224 201 142 157 207 221 270 17 1 5 3 7 9 16 18
220 245 206 266 237 187 214 268 218 259 227 211 20 331 148 270 310 249 259 319 307 289 153 140 224 180 257 274 238 256 258 220 191 189 192 267 134 8 353 345 346 354 6 8 5
234 190 198 267 199 152 216 243 200 207 204 221 161 182 202 202 205 276 1 228 248 342 53 18 284 183 260 264 269 257 267 256 221 232 267 217 161 35 344 346 351 359 4 1 358
222 219 212 217 173 127 219 223 207 156 191 217 156 128 262 258 275 278 275 262 250 203 158 251 199 2 266 335 309 296 12 96 111 58 328 52 32 3 346 341 334 353 7 356 351